When you browse on this site, cookies collect data to enhance your experience and personalize the content and advertising you see.
Visit our Privacy Policy to learn more. By continuing to use the site, you agree to this use of cookies and data.
  • In Latvia
  • List of Countries
  • For 7 days
  • Water Temperature
  • Satellite Maps
  • Weather Map
  • Weather Widgets
  • user-avatar
    Login

    Hourly Weather Mansa Konko

    Today, 20 June, Thursday

    Time Temperature Precipitation Wind Pressure Humidity
    00:00 +28°C° 0 mm 4 mps 760 mmHg 65%
    01:00 +28°C° 0 mm 4 mps 760 mmHg 66%
    02:00 +27°C° 0 mm 4 mps 759 mmHg 68%
    03:00 +27°C° 0 mm 4 mps 759 mmHg 69%
    04:00 +26°C° 0 mm 3 mps 759 mmHg 70%
    05:00 +26°C° 0 mm 3 mps 759 mmHg 71%
    06:00 +28°C° 0 mm 3 mps 759 mmHg 65%
    07:00 +29°C° 0 mm 3 mps 759 mmHg 59%
    08:00 +30°C° 0 mm 4 mps 760 mmHg 53%
    09:00 +34°C° 0 mm 4 mps 759 mmHg 44%
    10:00 +37°C° 0 mm 4 mps 759 mmHg 34%
    11:00 +40°C° 0 mm 4 mps 759 mmHg 24%
    12:00 +42°C° 0 mm 4 mps 758 mmHg 22%
    13:00 +43°C° 0 mm 4 mps 757 mmHg 19%
    14:00 +44°C° 0 mm 4 mps 757 mmHg 17%
    15:00 +43°C° 0 mm 4 mps 756 mmHg 18%
    16:00 +42°C° 0 mm 5 mps 756 mmHg 20%
    17:00 +41°C° 0 mm 5 mps 756 mmHg 21%
    18:00 +37°C° 0 mm 5 mps 757 mmHg 29%
    19:00 +34°C° 0 mm 5 mps 758 mmHg 37%
    20:00 +30°C° 0 mm 5 mps 759 mmHg 44%
    21:00 +29°C° 0 mm 5 mps 759 mmHg 53%
    22:00 +28°C° 0 mm 5 mps 759 mmHg 62%
    23:00 +26°C° 0 mm 4 mps 759 mmHg 71%

    Tomorrow, 21 June, Friday

    Time Temperature Precipitation Wind Pressure Humidity
    00:00 +26°C° 0 mm 4 mps 759 mmHg 75%
    01:00 +25°C° 0 mm 3 mps 759 mmHg 78%
    02:00 +25°C° 0 mm 3 mps 759 mmHg 82%
    03:00 +25°C° 0 mm 3 mps 759 mmHg 83%
    04:00 +25°C° 0 mm 3 mps 759 mmHg 84%
    05:00 +24°C° 0 mm 3 mps 759 mmHg 85%
    06:00 +26°C° 0 mm 3 mps 759 mmHg 77%
    07:00 +27°C° 0 mm 3 mps 760 mmHg 70%
    08:00 +29°C° 0 mm 4 mps 760 mmHg 62%
    09:00 +33°C° 0 mm 4 mps 760 mmHg 51%
    10:00 +35°C° 0 mm 3 mps 760 mmHg 41%
    11:00 +38°C° 0 mm 3 mps 760 mmHg 30%
    12:00 +40°C° 0 mm 3 mps 759 mmHg 27%
    13:00 +42°C° 0 mm 3 mps 758 mmHg 23%
    14:00 +44°C° 0 mm 3 mps 758 mmHg 20%
    15:00 +43°C° 0 mm 4 mps 758 mmHg 21%
    16:00 +43°C° 0 mm 4 mps 757 mmHg 22%
    17:00 +42°C° 0 mm 5 mps 757 mmHg 24%
    18:00 +39°C° 0 mm 5 mps 758 mmHg 32%
    19:00 +35°C° 0 mm 5 mps 759 mmHg 41%
    20:00 +30°C° 0 mm 5 mps 760 mmHg 50%
    21:00 +29°C° 0 mm 4 mps 760 mmHg 58%
    22:00 +28°C° 0 mm 4 mps 760 mmHg 65%
    23:00 +26°C° 0 mm 3 mps 761 mmHg 72%

    Day after tomorrow, 22 June, Saturday

    Time Temperature Precipitation Wind Pressure Humidity
    00:00 +26°C° 0 mm 3 mps 761 mmHg 75%
    01:00 +25°C° 0 mm 3 mps 760 mmHg 78%
    02:00 +25°C° 0 mm 3 mps 760 mmHg 81%
    03:00 +25°C° 0 mm 2 mps 760 mmHg 83%
    04:00 +25°C° 0 mm 2 mps 760 mmHg 84%
    05:00 +24°C° 0 mm 2 mps 760 mmHg 86%
    06:00 +26°C° 0 mm 2 mps 760 mmHg 78%
    07:00 +27°C° 0 mm 3 mps 760 mmHg 70%
    08:00 +28°C° 0 mm 4 mps 761 mmHg 63%
    09:00 +32°C° 0 mm 4 mps 760 mmHg 52%
    10:00 +35°C° 0 mm 3 mps 760 mmHg 41%
    11:00 +38°C° 0 mm 3 mps 760 mmHg 31%
    12:00 +40°C° 0 mm 3 mps 759 mmHg 28%
    13:00 +42°C° 0 mm 3 mps 759 mmHg 25%
    14:00 +43°C° 0 mm 3 mps 758 mmHg 23%
    15:00 +42°C° 0 mm 4 mps 758 mmHg 24%
    16:00 +42°C° 0 mm 5 mps 758 mmHg 25%
    17:00 +41°C° 0 mm 6 mps 757 mmHg 27%
    18:00 +38°C° 0 mm 6 mps 758 mmHg 37%
    19:00 +33°C° 0 mm 6 mps 759 mmHg 46%
    20:00 +29°C° 0 mm 5 mps 759 mmHg 56%
    21:00 +28°C° 0 mm 5 mps 760 mmHg 62%
    22:00 +27°C° 0 mm 4 mps 760 mmHg 68%
    23:00 +26°C° 0 mm 4 mps 760 mmHg 74%

    23 June, Sunday

    Time Temperature Precipitation Wind Pressure Humidity
    00:00 +25°C° 0 mm 3 mps 760 mmHg 77%
    01:00 +25°C° 0 mm 3 mps 760 mmHg 79%
    02:00 +24°C° 0 mm 2 mps 759 mmHg 81%
    03:00 +24°C° 0 mm 2 mps 759 mmHg 82%
    04:00 +24°C° 0 mm 2 mps 760 mmHg 83%
    05:00 +24°C° 0 mm 3 mps 760 mmHg 84%
    06:00 +25°C° 0 mm 2 mps 760 mmHg 77%
    07:00 +27°C° 0 mm 2 mps 760 mmHg 69%
    08:00 +28°C° 0 mm 2 mps 761 mmHg 62%
    09:00 +31°C° 0 mm 3 mps 760 mmHg 51%
    10:00 +34°C° 0 mm 3 mps 760 mmHg 40%
    11:00 +37°C° 0 mm 3 mps 759 mmHg 29%
    12:00 +39°C° 0 mm 3 mps 759 mmHg 26%
    13:00 +40°C° 0 mm 3 mps 758 mmHg 23%
    14:00 +42°C° 0 mm 2 mps 757 mmHg 20%
    15:00 +42°C° 0 mm 3 mps 757 mmHg 21%
    16:00 +42°C° 0 mm 4 mps 757 mmHg 22%
    17:00 +41°C° 0 mm 5 mps 756 mmHg 23%
    18:00 +36°C° 0 mm 5 mps 757 mmHg 34%
    19:00 +33°C° 0 mm 5 mps 758 mmHg 46%
    20:00 +28°C° 0 mm 5 mps 759 mmHg 57%
    21:00 +27°C° 0 mm 4 mps 759 mmHg 63%
    22:00 +26°C° 0 mm 4 mps 759 mmHg 69%
    23:00 +25°C° 0 mm 4 mps 759 mmHg 75%

    24 June, Monday

    Time Temperature Precipitation Wind Pressure Humidity
    00:00 +25°C° 0 mm 3 mps 759 mmHg 76%
    01:00 +25°C° 0 mm 3 mps 759 mmHg 78%
    02:00 +24°C° 0 mm 3 mps 758 mmHg 80%
    03:00 +24°C° 0 mm 2 mps 758 mmHg 82%
    04:00 +23°C° 0 mm 2 mps 758 mmHg 85%
    05:00 +23°C° 0 mm 1 mps 758 mmHg 88%
    06:00 +24°C° 0 mm 2 mps 759 mmHg 77%
    07:00 +26°C° 0 mm 2 mps 759 mmHg 67%
    08:00 +28°C° 0 mm 2 mps 759 mmHg 57%
    09:00 +31°C° 0 mm 2 mps 759 mmHg 45%
    10:00 +35°C° 0 mm 2 mps 758 mmHg 34%
    11:00 +38°C° 0 mm 2 mps 758 mmHg 22%
    12:00 +40°C° 0 mm 2 mps 758 mmHg 20%
    13:00 +42°C° 0 mm 2 mps 757 mmHg 17%
    14:00 +43°C° 0 mm 2 mps 756 mmHg 15%
    15:00 +43°C° 0 mm 2 mps 756 mmHg 15%
    16:00 +43°C° 0 mm 3 mps 756 mmHg 16%
    17:00 +43°C° 0 mm 4 mps 755 mmHg 17%
    18:00 +38°C° 0 mm 4 mps 756 mmHg 29%
    19:00 +34°C° 0 mm 4 mps 757 mmHg 41%
    20:00 +29°C° 0 mm 5 mps 757 mmHg 53%
    21:00 +28°C° 0 mm 4 mps 758 mmHg 60%
    22:00 +26°C° 0 mm 4 mps 758 mmHg 67%
    23:00 +25°C° 0 mm 4 mps 758 mmHg 74%

    25 June, Tuesday

    Time Temperature Precipitation Wind Pressure Humidity
    00:00 +25°C° 0 mm 3 mps 758 mmHg 77%
    01:00 +24°C° 0 mm 3 mps 758 mmHg 80%
    02:00 +24°C° 0 mm 2 mps 758 mmHg 82%
    03:00 +24°C° 0 mm 2 mps 758 mmHg 85%
    04:00 +23°C° 0 mm 2 mps 758 mmHg 87%
    05:00 +23°C° 0 mm 2 mps 758 mmHg 89%
    06:00 +25°C° 0 mm 2 mps 758 mmHg 78%
    07:00 +27°C° 0 mm 3 mps 758 mmHg 68%
    08:00 +29°C° 0 mm 3 mps 759 mmHg 57%
    09:00 +33°C° 0 mm 3 mps 758 mmHg 46%
    10:00 +36°C° 0 mm 3 mps 758 mmHg 34%
    11:00 +39°C° 0 mm 3 mps 757 mmHg 22%
    12:00 +42°C° 0 mm 3 mps 757 mmHg 20%
    13:00 +44°C° 0 mm 3 mps 756 mmHg 17%
    14:00 +45°C° 0 mm 3 mps 756 mmHg 14%
    15:00 +44°C° 0 mm 3 mps 756 mmHg 16%
    16:00 +43°C° 0 mm 4 mps 755 mmHg 19%
    17:00 +43°C° 0 mm 5 mps 755 mmHg 21%
    18:00 +39°C° 0 mm 5 mps 756 mmHg 33%
    19:00 +34°C° 0 mm 5 mps 756 mmHg 45%
    20:00 +29°C° 0 mm 4 mps 757 mmHg 56%
    21:00 +28°C° 0 mm 4 mps 757 mmHg 64%
    22:00 +27°C° 0 mm 4 mps 758 mmHg 71%
    23:00 +26°C° 0 mm 4 mps 758 mmHg 79%
    Show more